[[{"header":{"parameterUnit":"m.s-1","parameterCategory":1,"la1":30.2991,"la2":30.254,"lo1":-89.0895,"lo2":-89.0444,"dy":0.0017,"dx":0.0017,"nx":28,"ny":28,"refTime":"2023-08-15T03:00:00:Z","depth":0,"parameterNumber":2,"parameterNumberName":"U-component_of_WINDS"},"data":[0,0,0,0,0,0,0,0,0,0,0,0,0,0,0,0,0,0,0,0,0,0,0,0,0,0,0,0,0,0,0,0,0,0,0,0,0,0,0,0,0,0,0,0,0,0,0,0,0,0,0,0,0,0,0,0,0,0,4.4426,4.4423,0,4.4206,4.4204,4.4201,4.4018,4.4016,4.4014,4.4013,4.3775,4.3771,4.3766,0,0,0,0,0,0,0,0,0,0,0,0,0,4.4679,4.4675,4.4426,4.4423,4.442,4.4207,4.4204,4.4201,4.4019,4.4016,4.4014,4.4012,4.3777,4.3771,4.3766,0,0,0,0,0,0,0,0,0,0,0,0,0,4.4525,4.4674,4.4426,4.4304,4.4291,4.4207,4.4204,4.42,4.4019,4.4016,4.4013,4.4011,4.3778,4.3772,4.3765,4.3781,0,0,4.3744,4.3741,0,0,0,0,0,0,0,0,4.4534,4.4516,4.4325,4.4312,4.4298,4.4137,4.4206,4.4059,4.402,4.4122,4.4013,4.4009,4.3897,4.388,4.3845,4.377,4.3759,4.3744,4.3739,4.3737,4.3735,0,0,0,0,0,0,0,4.4545,4.4524,4.4338,4.4322,4.4306,4.4258,4.4233,4.4177,4.4028,4.4113,4.4099,4.4076,4.3889,4.3852,4.3838,4.3756,4.3744,4.3738,4.3734,4.3731,4.3686,4.3689,0,0,0,0,0,0,4.4576,4.4535,4.4345,4.4332,4.4412,4.4256,4.4227,4.4191,4.4028,4.4001,4.4079,4.4069,4.3865,4.3846,4.3829,4.3838,4.3737,4.373,4.3726,4.3684,4.3687,4.369,0,0,0,0,0,0,4.4582,4.4561,4.4354,4.443,4.44,4.4254,4.4215,4.4188,4.4151,4.4003,4.3974,4.4069,4.3862,4.3838,4.3796,4.3827,4.3727,4.3721,4.368,4.3685,4.3689,4.3856,0,0,0,0,0,0,4.459,4.4564,4.457,4.4431,4.4396,4.4327,4.4217,4.4186,4.4142,4.4126,4.3986,4.396,4.3858,4.3807,4.3789,4.3816,4.3716,4.3677,4.3682,4.3687,4.3847,4.3866,4.3882,0,0,0,0,0,4.46,4.4622,4.4571,4.4549,4.4401,4.433,4.4309,4.4195,4.4145,4.4148,4.4054,4.3964,4.3829,4.3804,4.3782,4.3808,4.3674,4.3681,4.3687,4.3839,4.3862,4.3881,0,0,0,0,0,0,4.4761,4.4601,4.4543,4.4522,4.4442,4.4299,4.4299,4.4222,4.4151,4.4138,4.3997,4.3967,4.394,4.3869,4.3846,4.3817,4.3739,4.3742,4.3863,4.3883,4.39,4.3916,4.371,0,0,0,0,0,4.4796,4.4755,4.4616,4.461,4.4574,4.4445,4.4409,4.433,4.4239,4.4202,4.4104,4.4016,4.3954,4.3915,4.3849,4.3838,4.3805,4.3845,4.3863,4.3878,4.388,4.3871,4.3888,4.3712,4.3712,4.3711,0,0,4.4864,4.4772,4.4752,4.4641,4.4569,4.4527,4.4417,4.4375,4.4343,4.4194,4.4149,4.4076,4.3968,4.3943,4.3927,4.3883,4.3923,4.3886,4.3899,4.3893,4.388,4.3896,4.3911,4.3716,4.3715,4.3715,0,0,4.4966,4.4893,4.4882,4.4815,4.4711,4.4626,4.4625,4.4495,4.4442,4.4397,4.4286,4.4244,4.4139,4.4068,4.4018,4.4105,4.4019,4.4087,4.4175,4.4168,4.4182,4.4194,4.4224,4.4236,4.4091,4.4091,4.4091,0,4.5061,4.4998,4.4884,4.4853,4.4807,4.4679,4.4666,4.4604,4.4483,4.4453,4.4409,4.4279,4.4197,4.4154,4.4177,4.4141,4.4133,4.4099,4.419,4.42,4.4209,4.4236,4.4248,4.41,4.4099,4.4098,4.4097,0,4.5121,4.5079,4.5082,4.4975,4.493,4.4907,4.4789,4.4757,4.4684,4.4604,4.4561,4.4461,4.4374,4.4359,4.4284,4.4307,4.4284,4.4218,4.4135,4.4237,4.426,4.4269,4.4113,4.4109,4.4107,4.4105,0,0,4.531,4.5148,4.5151,4.5102,4.4982,4.4946,4.4919,4.484,4.4815,4.4738,4.471,4.463,4.457,4.4514,4.4431,4.4426,4.4501,4.4359,4.4354,4.4388,4.4521,4.457,4.4584,4.4447,4.4448,4.4449,4.4529,0,4.5392,4.534,4.5241,4.5219,4.5179,4.5061,4.5038,4.4961,4.4888,4.4841,4.4758,4.4704,4.4628,4.4595,4.4585,4.4494,4.4525,4.4488,4.4417,4.4416,4.4444,4.4595,4.4645,4.4725,4.4538,4.4539,4.454,0,4.5477,4.5414,4.5391,4.5279,4.5258,4.5239,4.5161,4.5119,4.5031,4.4978,4.4921,4.4833,4.4797,4.4728,4.4676,4.4653,4.462,4.4572,4.4572,4.4557,4.4481,4.4583,4.4747,4.4759,4.4553,4.4552,4.4551,0,4.5618,4.5526,4.5501,4.5463,4.5332,4.5322,4.5266,4.5175,4.5136,4.5067,4.504,4.4968,4.4927,4.4872,4.4767,4.4726,4.4727,4.4648,4.468,4.4683,4.468,4.4681,4.484,4.4665,4.4665,4.4665,4.4665,0,4.5716,4.5706,4.5563,4.5547,4.5533,4.5421,4.5409,4.5341,4.5263,4.5231,4.5124,4.5095,4.496,4.4915,4.4833,4.4803,4.4786,4.474,4.4718,4.4748,4.4754,4.472,4.4711,4.4668,4.4667,4.4667,4.4666,0,4.5867,4.5772,4.5736,4.5619,4.5589,4.5584,4.5481,4.5461,4.5386,4.5346,4.533,4.521,4.5153,4.5045,4.4955,4.49,4.4888,4.485,4.4919,4.4904,4.4942,4.4939,4.5082,4.5094,4.4916,4.4918,4.4919,0,4.5935,4.5925,4.581,4.5783,4.5734,4.5691,4.5653,4.5544,4.5507,4.5411,4.5402,4.5339,4.5281,4.5195,4.5097,4.503,4.4988,4.5043,4.4976,4.5009,4.4987,4.4988,4.4986,4.5056,4.5059,4.5061,4.5063,0,4.6065,4.602,4.5971,4.5908,4.5868,4.5811,4.5748,4.5732,4.5607,4.5572,4.5516,4.5473,4.5386,4.5323,4.5243,4.5182,4.5101,4.5086,4.5089,4.5118,4.5158,4.5136,4.4957,4.5081,4.508,4.5078,4.5077,4.5076,4.6174,4.6162,4.6081,4.6031,4.5974,4.592,4.5897,4.5822,4.5775,4.5699,4.5637,4.5587,4.5502,4.5387,4.5332,4.5289,4.525,4.5255,4.5256,4.5258,4.5271,4.517,4.5274,4.5274,4.5273,4.5273,4.5272,0,4.6297,4.6242,4.6198,4.6118,4.6079,4.6015,4.5944,4.5915,4.5873,4.5804,4.5752,4.5689,4.563,4.5532,4.5465,4.545,4.5411,4.5435,4.5433,4.5421,4.531,4.5313,4.5468,4.5468,4.5468,4.5468,4.5468,4.5468,4.6357,4.6333,4.6281,4.6229,4.6171,4.6125,4.609,4.604,4.5984,4.5921,4.5873,4.5813,4.5731,4.5659,4.5602,4.5574,4.5553,4.5589,4.555,4.5446,4.5428,4.541,4.5412,4.5586,4.5586,4.5663,4.5664,4.5665]},{"header":{"parameterUnit":"m.s-1","parameterCategory":1,"la1":30.2991,"la2":30.254,"lo1":-89.0895,"lo2":-89.0444,"dy":0.0017,"dx":0.0017,"nx":28,"ny":28,"refTime":"2023-08-15T03:00:00:Z","depth":0,"parameterNumber":3,"parameterNumberName":"V-component_of_WINDS"},"data":[0,0,0,0,0,0,0,0,0,0,0,0,0,0,0,0,0,0,0,0,0,0,0,0,0,0,0,0,0,0,0,0,0,0,0,0,0,0,0,0,0,0,0,0,0,0,0,0,0,0,0,0,0,0,0,0,0,0,6.327,6.3275,0,6.3686,6.369,6.3695,6.3725,6.3721,6.3716,6.3712,6.4115,6.413,6.4145,0,0,0,0,0,0,0,0,0,0,0,0,0,6.2478,6.2493,6.327,6.3275,6.328,6.3685,6.369,6.3696,6.3726,6.3721,6.3715,6.371,6.411,6.4128,6.4146,0,0,0,0,0,0,0,0,0,0,0,0,0,6.285,6.2498,6.3269,6.3345,6.3356,6.3684,6.3691,6.3698,6.3727,6.372,6.3714,6.3707,6.4105,6.4126,6.4149,6.4423,0,0,6.4217,6.4227,0,0,0,0,0,0,0,0,6.2829,6.2879,6.3328,6.334,6.3353,6.3647,6.3559,6.394,6.3729,6.3585,6.3712,6.3704,6.3964,6.3997,6.4089,6.4442,6.4459,6.4219,6.4233,6.4242,6.4249,0,0,0,0,0,0,0,6.2803,6.2861,6.3434,6.3334,6.335,6.335,6.3395,6.3632,6.3806,6.3597,6.3601,6.3651,6.3969,6.4068,6.4099,6.4465,6.4218,6.4238,6.4252,6.4261,6.5057,6.5064,0,0,0,0,0,0,6.2766,6.284,6.342,6.3446,6.307,6.337,6.342,6.3559,6.3804,6.3836,6.3656,6.365,6.4033,6.4073,6.4113,6.4448,6.4242,6.4263,6.4276,6.5049,6.5059,6.5067,0,0,0,0,0,0,6.2749,6.2818,6.3404,6.3144,6.3219,6.3391,6.3546,6.3571,6.367,6.3849,6.3878,6.3727,6.4029,6.4082,6.4346,6.4462,6.4273,6.4294,6.504,6.5052,6.5063,6.5121,0,0,0,0,0,0,6.2727,6.2812,6.2924,6.3147,6.3233,6.3637,6.3553,6.3584,6.3711,6.3708,6.3923,6.3952,6.4028,6.4312,6.4368,6.449,6.4311,6.503,6.5046,6.5059,6.5109,6.5133,6.5153,0,0,0,0,0,6.2698,6.292,6.293,6.2999,6.3378,6.3644,6.3692,6.3782,6.3721,6.3831,6.3945,6.3945,6.4441,6.4339,6.4402,6.4532,6.5023,6.5041,6.5058,6.5099,6.5128,6.5153,0,0,0,0,0,0,6.2699,6.2951,6.2964,6.3266,6.3434,6.3649,6.3791,6.381,6.3993,6.3982,6.4077,6.4125,6.4386,6.4485,6.4368,6.4808,6.4724,6.4755,6.4734,6.4763,6.4785,6.4754,6.433,0,0,0,0,0,6.2736,6.2939,6.3144,6.339,6.3475,6.3618,6.3737,6.3792,6.3967,6.4036,6.4169,6.4333,6.4525,6.4649,6.4836,6.5123,6.5167,6.5243,6.5265,6.5282,6.5307,6.5461,6.5496,6.5124,6.5124,6.5123,0,0,6.2811,6.2973,6.3095,6.3395,6.3532,6.3732,6.3678,6.3892,6.4039,6.4066,6.4326,6.4429,6.4616,6.4892,6.502,6.4983,6.5419,6.5304,6.5317,6.5333,6.5482,6.5517,6.5549,6.5135,6.5133,6.5131,0,0,6.3051,6.3197,6.3417,6.3556,6.3766,6.3859,6.3911,6.4124,6.4195,6.4458,6.4481,6.4653,6.4984,6.5116,6.5226,6.5512,6.5517,6.5569,6.5683,6.5832,6.5862,6.5888,6.5987,6.6021,6.5593,6.5594,6.5594,0,6.3116,6.3428,6.3525,6.3742,6.3869,6.3909,6.4127,6.4254,6.4511,6.4595,6.4551,6.4965,6.5094,6.54,6.547,6.5559,6.5616,6.5545,6.5851,6.5878,6.5904,6.5999,6.6036,6.5598,6.5598,6.5597,6.5597,0,6.3495,6.3709,6.386,6.4115,6.4259,6.4475,6.4598,6.4731,6.4771,6.4866,6.5129,6.5286,6.5504,6.558,6.5619,6.589,6.586,6.5833,6.575,6.5943,6.6034,6.6071,6.5605,6.5604,6.5602,6.5601,0,0,6.375,6.4055,6.4109,6.4223,6.4455,6.4619,6.4831,6.5052,6.5162,6.5335,6.5512,6.579,6.5766,6.5891,6.5944,6.6075,6.6287,6.6032,6.6037,6.6071,6.6589,6.6608,6.6649,6.6292,6.6299,6.6305,6.6572,0,6.4014,6.4405,6.4497,6.4827,6.5023,6.5061,6.5245,6.5403,6.5496,6.5669,6.5768,6.5963,6.5918,6.5993,6.6125,6.6234,6.6392,6.6216,6.6451,6.6458,6.6402,6.6697,6.6718,6.6963,6.6609,6.6615,6.6619,0,6.4376,6.4565,6.4917,6.5121,6.5206,6.5372,6.5579,6.5746,6.5922,6.598,6.6119,6.6159,6.6373,6.6281,6.6574,6.6452,6.6553,6.662,6.6631,6.6655,6.655,6.6726,6.7044,6.708,6.6676,6.6672,6.6668,0,6.4522,6.4864,6.5118,6.5215,6.546,6.5575,6.568,6.5851,6.5976,6.6153,6.6234,6.6431,6.6538,6.6686,6.6774,6.67,6.7059,6.6975,6.7107,6.7105,6.7181,6.7175,6.7517,6.7248,6.7248,6.7247,6.7246,0,6.4808,6.5021,6.5188,6.5344,6.5581,6.568,6.5909,6.6014,6.6165,6.6336,6.6377,6.6535,6.6644,6.6814,6.6883,6.7113,6.7161,6.7209,6.7224,6.7205,6.7199,6.7271,6.7256,6.7257,6.7255,6.7253,6.7251,0,6.5012,6.5134,6.5413,6.5623,6.568,6.5845,6.602,6.6169,6.6262,6.6478,6.6533,6.6677,6.688,6.6984,6.7234,6.728,6.7539,6.7544,6.7482,6.7488,6.7614,6.76,6.8014,6.8071,6.7765,6.7768,6.777,0,6.5186,6.5352,6.558,6.5702,6.5812,6.6006,6.6134,6.6235,6.6366,6.6578,6.6699,6.6905,6.7076,6.7396,6.7518,6.7708,6.7717,6.7849,6.7746,6.772,6.7716,6.7705,6.772,6.7867,6.787,6.7872,6.7874,0,6.548,6.5532,6.572,6.5929,6.6083,6.625,6.6414,6.6508,6.6634,6.6777,6.6989,6.7121,6.7379,6.7581,6.778,6.7879,6.7896,6.7906,6.7946,6.7928,6.7884,6.7907,6.753,6.7896,6.7894,6.7892,6.7891,6.789,6.5674,6.5822,6.6006,6.6212,6.6347,6.6499,6.6649,6.6763,6.6943,6.7166,6.7212,6.7434,6.7599,6.787,6.7975,6.8145,6.8116,6.8175,6.819,6.8202,6.8207,6.7858,6.8181,6.8181,6.818,6.818,6.8179,0,6.5969,6.6089,6.6278,6.651,6.667,6.6678,6.6858,6.699,6.7188,6.7344,6.7512,6.7751,6.7946,6.8084,6.828,6.8389,6.8401,6.8437,6.8429,6.8451,6.8223,6.8168,6.8424,6.8424,6.8424,6.8424,6.8424,6.8423,6.6141,6.6391,6.6463,6.6777,6.6893,6.7117,6.7219,6.7356,6.7482,6.775,6.7915,6.8005,6.8152,6.8359,6.8536,6.857,6.8639,6.8675,6.8708,6.8493,6.8467,6.8442,6.8391,6.8689,6.869,6.8922,6.8924,6.8925]}]]